This is the latest recevied weather packets stored in our database for station/object FW9167. If no packets are shown the sender has not sent any weather packets the latest 10 day(s).
| Time | Temp. | Humidity | Pressure | Rain* | Wind** | Luminosity | Snow |
|---|---|---|---|---|---|---|---|
| 1778210163 | 15.56° C | 46% | 1014.4 hPa | 0 mm | - | - | - |
| 1778209263 | 17.22° C | 45% | 1014.2 hPa | 0 mm | - | - | - |
| 1778206565 | 21.67° C | 31% | 1013.7 hPa | 0 mm | - | - | - |
| 1778201162 | 23.89° C | 24% | 1013.2 hPa | 0 mm | - | - | - |
| 1778198463 | 23.89° C | 24% | 1013.3 hPa | 0 mm | - | - | - |
| 1778193963 | 23.89° C | 25% | 1013.7 hPa | 0 mm | - | - | - |
| 1778186762 | 22.78° C | 35% | 1015.1 hPa | 0 mm | - | - | - |
| 1778179562 | 20.56° C | 39% | 1016.2 hPa | 0 mm | - | - | - |
| 1778176864 | 19.44° C | 42% | 1016.4 hPa | 0 mm | - | - | - |
| 1778175062 | 19.44° C | 44% | 1016.6 hPa | 0 mm | - | - | - |
| 1778173263 | 18.89° C | 40% | 1016.8 hPa | 0 mm | - | - | - |
| 1778172362 | 18.33° C | 42% | 1016.9 hPa | 0 mm | - | - | - |
| 1778161562 | 10.56° C | 68% | 1016.4 hPa | 0 mm | - | - | - |
| 1778157962 | 8.33° C | 69% | 1016.1 hPa | 0 mm | - | - | - |
| 1778156165 | 8.89° C | 64% | 1016 hPa | 0 mm | - | - | - |
| 1778149861 | 8.89° C | 67% | 1015.6 hPa | 0 mm | - | - | - |
| 1778144462 | 12.22° C | 63% | 1015.4 hPa | 0 mm | - | - | - |
| 1778143562 | 12.22° C | 64% | 1015.4 hPa | 0 mm | - | - | - |
| 1778134564 | 15° C | 47% | 1015.2 hPa | 0 mm | - | - | - |
| 1778127367 | 15° C | 66% | 1015.5 hPa | 0 mm | - | - | - |
| 1778114762 | 22.22° C | 49% | 1015 hPa | 0 mm | - | - | - |
| 1778112063 | 23.89° C | 39% | 1015.1 hPa | 0 mm | - | - | - |
| 1778111163 | 23.89° C | 42% | 1015.2 hPa | 0 mm | - | - | - |
| 1778110262 | 24.44° C | 38% | 1015.2 hPa | 0 mm | - | - | - |
| 1778093162 | 19.44° C | 42% | 1019.3 hPa | 0 mm | - | - | - |
* Rain since midnight (hover to see other rain measurements)
** Current wind speed in m/s (hover to see current wind gust speed)